Home   Weather   Annapolis   Past weeks

Flag for USA Past Weather in Annapolis, Maryland, USA — Yesterday and Last 2 Weeks

Now
45 °F

Clear.


Feels Like: 40 °F
Forecast: 44 / 59 °F
Wind: 10 mph from South

Location: Annapolis - United States Naval Academy

Current Time: Feb 22, 2017 at 1:24:26 am

Latest Report: Feb 22, 2017 at 12:54 am


Visibility: 10 mi

Pressure: 30.10 "Hg

Humidity: 82%

Dew Point: 40 °F

Location of AnnapolisLocation

Past Weather in Annapolis — Graph

°F

Annapolis Temperature Yesterday

Maximum temperature yesterday: 52 °F (at 3:54 pm)
Minimum temperature yesterday: 41 °F (at 5:54 am)
Average temperature yesterday: 45 °F

High & Low Weather Summary for the Past Weeks

 TemperatureHumidityPressure
High69 °F (Feb 19, 2:54 pm)96% (Feb 20, 6:54 am)30.42 "Hg (Feb 20, 6:54 am)
Low24 °F (Feb 10, 3:54 am)30% (Feb 10, 1:54 pm)29.43 "Hg (Feb 15, 12:54 pm)
Average45 °F61%29.90 "Hg
* Reported Feb 6 11:54 pm — Feb 21 11:54 pm, Annapolis, Weather by CustomWeather, © 2017

Note: Actual official high and low records may vary slightly from our data, if they occured in-between our weather recording intervals... More about our weather records

Advertising

Annapolis Weather History for the Previous 24 Hours

Scroll right to see more
 ConditionsComfort  
Time TempWeatherWind HumidityBarometerVisibility
11:54 pm
Tue, Feb 21
46 °FClear.8 mph77%30.12 "Hg10 mi
10:54 pm46 °FClear.8 mph79%30.15 "Hg10 mi
9:54 pm46 °FClear.9 mph79%30.16 "Hg10 mi
8:54 pm46 °FClear.9 mph79%30.18 "Hg10 mi
7:54 pm47 °FClear.12 mph74%30.18 "Hg10 mi
6:54 pm48 °FClear.13 mph68%30.19 "Hg10 mi
5:54 pm49 °FClear.8 mph61%30.18 "Hg10 mi
4:54 pm49 °FSunny.8 mph66%30.19 "Hg10 mi
3:54 pm52 °FSunny.13 mph50%30.20 "Hg10 mi
2:54 pm47 °FSunny.10 mph71%30.22 "Hg10 mi
1:54 pm46 °FSunny.13 mph71%30.24 "Hg10 mi
12:54 pm46 °FSunny.9 mph66%30.28 "Hg10 mi
11:54 am44 °FSunny.8 mph63%30.31 "Hg10 mi
10:54 am43 °FSunny.7 mph62%30.34 "Hg10 mi
9:54 am43 °FSunny.3 mph58%30.35 "Hg10 mi
8:54 am42 °FSunny.8 mph57%30.36 "Hg10 mi
7:54 am41 °FSunny.No wind53%30.37 "Hg10 mi
6:54 am41 °FSunny.5 mph51%30.37 "Hg10 mi
5:54 am41 °FClear.5 mph51%30.36 "Hg10 mi
4:54 am42 °FClear.3 mph49%30.34 "Hg10 mi
3:54 am43 °FClear.5 mph51%30.34 "Hg10 mi
2:54 am44 °FClear.7 mph51%30.32 "Hg10 mi
1:54 am46 °FClear.12 mph44%30.33 "Hg10 mi
Weather by CustomWeather, © 2017

See weather overviewHow to use our weather pages